ROMMA est une association bénévole à but non lucratif. Votre soutien est indispensable : ADHERER à ROMMA ou FAIRE un DON

Voiron - (38, Isère)

Voironnais (300 m)   Longitude: 05° 35' E   Latitude: 45° 23' N Station partenaire n°109
 

Détail journalier du     <<     >>

Température Precipitation Humidité Pression Vent Dir Rafale Dir. rafale Ensol.
Heure (°C) (mm) (%) (hPa) (km/h) (km/h) (min)
01:00 2.408710341NNO5NNO0
02:00 2.108710331NNO5NNO0
03:00 1.908610321NNO5NNO0
04:00 1.608610312O5NNO0
05:00 1.2088103105O0
06:00 2.308110306SE19ESE0
07:00 1.308410314N18ESE0
08:00 1.308510314SE11ONO0
09:00 3.507610305SE13SSE60
10:00 5.606710295SSE24S60
11:00 6.8062102819SSE35SSE60
12:00 8.2058102719SSE32SSE60
13:00 10.2051102611SE27SSE60
14:00 11.704410249SSE21SE60
15:00 13.503810234SE15SSO60
16:00 13.703810217S16SSE60
17:00 13.304510206SSO13OSO30
18:00 13.403710212SSO11ONO30
19:00 12.703410202ESE10ESE0
20:00 12.003110213SE16S0
21:00 12.003110212NNE15O0
22:00 10.104410212SE5SE0
23:00 11.104410214SSE23SSE0
minuit 10.005210193ESE16SSE0

Graphique du 12-03-2019

 

Serveur OMMA